Regional Weather Roundup
Issued by NWS

Home | Current Version | Previous Version | Text Only | Print | Product List | Glossary On
Versions: 1 2 3 4 5 6 7 8 9 10 11 12 13 14 15 16 17 18 19 20 21 22 23 24 25 26 27 28 29 30 31 32 33 34 35 36 37 38 39 40 41 42 43 44 45 46 47 48 49 50
617
ASUS44 KLIX 061112
RWRLA
LOUISIANA WEATHER ROUNDUP
NATIONAL WEATHER SERVICE NEW ORLEANS LA
600 AM CDT FRI MAY 06 2016

NOTE: "FAIR" INDICATES FEW OR NO CLOUDS BELOW 12,000 FEET WITH NO
      SIGNIFICANT WEATHER AND/OR OBSTRUCTIONS TO VISIBILITY.
      SKY/WX - SKY CONDITION AND SIGNIFICANT WEATHER.
      TMP - AIR TEMPERATURE.    DP   - DEWPOINT TEMPERATURE.
      RH  - RELATIVE HUMIDITY.  PRES - PRESSURE.
      HX  - HEAT INDEX.         WCI  - WIND CHILL INDEX.

*  THESE STATIONS ARE NOT NWS OR FAA STATIONS AND ARE NOT UNDER
   NWS QUALITY CONTROL.

LAZ040-048-061>063-065-066-069-061200-
SOUTHEAST LOUISIANA

CITY           SKY/WX    TMP DP  RH WIND       PRES   REMARKS
N.O. AUDUBON   NOT AVBL
N.O. INTL ARPT PTCLDY    65  45  48 NE9       30.00S
N.O. LAKEFRONT CLEAR     64  49  57 NE17      30.00S
N.O. DOWNTOWN* FAIR      65  44  46 VRB5      30.01R
RESERVE*       FAIR      60  47  62 NE7       30.02R
SLIDELL        CLEAR     49  48  97 CALM      30.01R
BATON ROUGE    CLEAR     52  47  83 NE5       30.02R
BOOTHVILLE     CLEAR     67  48  50 N8        29.99R
BELLE CHASSE   PTCLDY    53  50  89 CALM      30.00S
BOGALUSA*      FAIR      50  45  85 CALM      30.03S
GALLIANO*      SUNNY     55  53  95 CALM      30.00R
NEW ROADS*     FAIR      52  51  97 CALM      30.03R
GONZALES*      FAIR      53  48  81 CALM      30.01R
HAMMOND*       CLEAR     48  45  87 CALM      30.02R
HOUMA*           N/A     55  52  91 CALM      30.00S
PORT FOURCHON* SUNNY     68  50  52 NE12      30.01R

$$

LAZ041-044-053-054-061200-
SOUTHWEST LOUISIANA

CITY           SKY/WX    TMP DP  RH WIND       PRES   REMARKS
LAKE CHARLES   CLEAR     55  53  93 CALM      30.01R
LAFAYETTE      PTCLDY    57  50  77 NE5       30.02R
PATTERSON      NOT AVBL
SALT POINT       N/A     59  54  83 CALM      30.00R
NEW IBERIA     PTCLDY    55  51  86 CALM      30.02R
CHENAULT AIRPK CLEAR     55  52  88 CALM      30.01R

$$

LAZ027-028-061200-
CENTRAL LOUISIANA

CITY           SKY/WX    TMP DP  RH WIND       PRES   REMARKS
FORT POLK      PTCLDY    52  50  94 NW1       30.01R
ALEXANDRIA INT CLEAR     54  54 100 CALM      30.01S
ALEXANDRIA     CLEAR     51  48  89 CALM      30.03R

$$

LAZ001-002-061200-
NORTHWEST LOUISIANA

CITY           SKY/WX    TMP DP  RH WIND       PRES   REMARKS
SHREVEPORT     CLEAR     54  51  90 NE3       30.02R
BARKSDALE AFB  CLEAR     54  54 100 MISG      30.03R
DTN SHREVEPORT CLEAR     58  54  86 NE5       30.03R

$$

LAZ014-016-061200-
NORTHEAST LOUISIANA

CITY           SKY/WX    TMP DP  RH WIND       PRES   REMARKS
MONROE         CLEAR     55  48  77 NE6       30.06R
TALLULAH       CLEAR     55  47  74 NE7       30.05R

$$





USA.gov is the U.S. government's official web portal to all federal, state and local government web resources and services.